[[{"header":{"parameterUnit":"m.s-1","parameterCategory":1,"la1":30.2991,"la2":30.254,"lo1":-89.0895,"lo2":-89.0444,"dy":0.0017,"dx":0.0017,"nx":28,"ny":28,"refTime":"2024-02-27T03:00:00:Z","depth":0,"parameterNumber":2,"parameterNumberName":"U-component_of_WINDS"},"data":[0,0,0,0,0,0,0,0,0,0,0,0,0,0,0,0,0,0,0,0,0,0,0,0,0,0,0,0,0,0,0,0,0,0,0,0,0,0,0,0,0,0,0,0,0,0,0,0,0,0,0,0,0,0,0,0,0,0,-3.2228,-3.2228,0,-3.2249,-3.2249,-3.2249,-3.2188,-3.2187,-3.2185,-3.2183,-3.2204,-3.2207,-3.2209,0,0,0,0,0,0,0,0,0,0,0,0,0,-3.2135,-3.2137,-3.2228,-3.2228,-3.2228,-3.2249,-3.2249,-3.2249,-3.2189,-3.2186,-3.2184,-3.2182,-3.2204,-3.2206,-3.2209,0,0,0,0,0,0,0,0,0,0,0,0,0,-3.2167,-3.2138,-3.2228,-3.2201,-3.2198,-3.2248,-3.2249,-3.2249,-3.2189,-3.2186,-3.2184,-3.2181,-3.2203,-3.2206,-3.2209,-3.2287,0,0,-3.222,-3.2221,0,0,0,0,0,0,0,0,-3.2166,-3.2171,-3.2204,-3.2203,-3.22,-3.2213,-3.2224,-3.2262,-3.219,-3.2193,-3.2183,-3.218,-3.2209,-3.2212,-3.2222,-3.2288,-3.2289,-3.222,-3.2222,-3.2224,-3.2225,0,0,0,0,0,0,0,-3.2164,-3.217,-3.2236,-3.2205,-3.2202,-3.2187,-3.2189,-3.2231,-3.2217,-3.2192,-3.2188,-3.2191,-3.2208,-3.2219,-3.2222,-3.2289,-3.222,-3.2223,-3.2225,-3.2227,-3.2419,-3.2422,0,0,0,0,0,0,-3.2165,-3.2168,-3.2235,-3.2237,-3.2176,-3.2191,-3.2193,-3.2212,-3.2216,-3.2214,-3.2194,-3.2188,-3.2214,-3.2218,-3.2223,-3.2314,-3.2224,-3.2227,-3.2229,-3.2416,-3.2419,-3.2423,0,0,0,0,0,0,-3.2163,-3.2171,-3.2234,-3.2201,-3.2208,-3.2196,-3.2217,-3.2214,-3.2225,-3.2217,-3.2214,-3.2208,-3.2212,-3.2218,-3.2271,-3.2314,-3.2229,-3.2232,-3.2412,-3.2417,-3.2421,-3.2497,0,0,0,0,0,0,-3.2161,-3.2171,-3.2201,-3.2202,-3.221,-3.2283,-3.222,-3.2216,-3.2231,-3.2224,-3.2229,-3.2228,-3.2211,-3.2266,-3.2275,-3.2317,-3.2234,-3.2408,-3.2414,-3.242,-3.2491,-3.2503,-3.2514,0,0,0,0,0,-3.2158,-3.2221,-3.2202,-3.2211,-3.2247,-3.2286,-3.229,-3.2269,-3.2235,-3.2264,-3.2259,-3.2227,-3.2308,-3.2272,-3.2281,-3.2325,-3.2405,-3.2412,-3.2419,-3.2485,-3.2501,-3.2514,0,0,0,0,0,0,-3.2225,-3.2221,-3.22,-3.2266,-3.2277,-3.2275,-3.2312,-3.2287,-3.2307,-3.23,-3.2273,-3.2275,-3.2333,-3.2334,-3.2295,-3.24,-3.2351,-3.2359,-3.2398,-3.2413,-3.2424,-3.2424,-3.2237,0,0,0,0,0,-3.2247,-3.2279,-3.2274,-3.2333,-3.2339,-3.2325,-3.2341,-3.2324,-3.2334,-3.2338,-3.2336,-3.2347,-3.2375,-3.2393,-3.2418,-3.249,-3.249,-3.2524,-3.2536,-3.2546,-3.2555,-3.2593,-3.2608,-3.2445,-3.2445,-3.2445,0,0,-3.2294,-3.2296,-3.2318,-3.2346,-3.2352,-3.2386,-3.2329,-3.2367,-3.2392,-3.2344,-3.2394,-3.2393,-3.2403,-3.2466,-3.2494,-3.2469,-3.2599,-3.2555,-3.2563,-3.2566,-3.2601,-3.2617,-3.2631,-3.245,-3.2449,-3.2448,0,0,-3.2397,-3.2402,-3.2451,-3.2458,-3.2468,-3.2458,-3.247,-3.2473,-3.247,-3.2521,-3.2485,-3.2514,-3.2562,-3.257,-3.2581,-3.2687,-3.2659,-3.2695,-3.2759,-3.2796,-3.2809,-3.282,-3.2859,-3.2873,-3.2703,-3.2704,-3.2704,0,-3.2455,-3.2504,-3.248,-3.2521,-3.2534,-3.2492,-3.2542,-3.255,-3.2568,-3.2578,-3.2549,-3.2608,-3.2612,-3.2677,-3.2703,-3.2712,-3.2725,-3.2695,-3.2809,-3.282,-3.283,-3.2867,-3.2881,-3.2708,-3.2708,-3.2707,-3.2707,0,-3.2574,-3.2609,-3.2648,-3.2666,-3.2684,-3.2729,-3.2712,-3.2732,-3.2714,-3.2706,-3.2758,-3.2761,-3.2786,-3.2799,-3.2781,-3.2861,-3.2846,-3.2814,-3.2763,-3.2851,-3.2884,-3.2898,-3.2715,-3.2713,-3.2712,-3.271,0,0,-3.2722,-3.2725,-3.274,-3.2748,-3.2756,-3.2782,-3.2825,-3.2849,-3.2868,-3.2881,-3.2917,-3.2958,-3.2928,-3.294,-3.2922,-3.2955,-3.3039,-3.2919,-3.2919,-3.2942,-3.3128,-3.3153,-3.317,-3.302,-3.3023,-3.3025,-3.3128,0,-3.2824,-3.2898,-3.2877,-3.2952,-3.2984,-3.2943,-3.298,-3.2989,-3.2983,-3.3009,-3.3002,-3.3033,-3.2991,-3.2998,-3.3028,-3.3023,-3.3077,-3.3015,-3.3054,-3.3055,-3.3054,-3.3187,-3.3214,-3.3311,-3.3141,-3.3143,-3.3145,0,-3.2954,-3.2972,-3.305,-3.3052,-3.3065,-3.3099,-3.3119,-3.3144,-3.3153,-3.3146,-3.316,-3.3135,-3.3177,-3.3126,-3.3184,-3.3142,-3.3156,-3.3156,-3.3159,-3.3163,-3.3106,-3.3196,-3.3342,-3.3357,-3.3165,-3.3163,-3.3162,0,-3.3055,-3.3099,-3.3151,-3.3159,-3.3162,-3.3187,-3.319,-3.3196,-3.3211,-3.3229,-3.3239,-3.3261,-3.3273,-3.3291,-3.3273,-3.3237,-3.3334,-3.3281,-3.333,-3.333,-3.3353,-3.3352,-3.3505,-3.3361,-3.336,-3.336,-3.336,0,-3.3172,-3.3222,-3.3197,-3.3229,-3.3283,-3.3258,-3.3312,-3.3309,-3.3315,-3.3346,-3.3311,-3.3341,-3.3315,-3.3342,-3.3328,-3.3378,-3.3384,-3.338,-3.3376,-3.3384,-3.3385,-3.3394,-3.3387,-3.3364,-3.3363,-3.3362,-3.3362,0,-3.3295,-3.328,-3.3335,-3.3333,-3.3334,-3.3374,-3.3372,-3.3402,-3.3393,-3.3433,-3.344,-3.3427,-3.3457,-3.344,-3.3472,-3.3462,-3.3527,-3.3513,-3.3525,-3.3522,-3.3572,-3.3568,-3.3737,-3.3758,-3.3599,-3.3601,-3.3602,0,-3.3372,-3.3409,-3.3411,-3.343,-3.3434,-3.3464,-3.348,-3.3456,-3.3474,-3.3486,-3.3515,-3.3542,-3.3563,-3.3613,-3.3606,-3.3629,-3.3616,-3.3674,-3.362,-3.3627,-3.3618,-3.3617,-3.3621,-3.3685,-3.3687,-3.3689,-3.369,0,-3.351,-3.35,-3.3525,-3.3547,-3.3566,-3.3582,-3.3595,-3.3612,-3.3589,-3.361,-3.3641,-3.3657,-3.3689,-3.3716,-3.3736,-3.3738,-3.3711,-3.3707,-3.3719,-3.3729,-3.3734,-3.3733,-3.3556,-3.3703,-3.3702,-3.3701,-3.37,-3.37,-3.3612,-3.3643,-3.365,-3.3678,-3.3685,-3.3698,-3.3726,-3.372,-3.3746,-3.377,-3.3754,-3.379,-3.3797,-3.3821,-3.3826,-3.3854,-3.3831,-3.385,-3.3854,-3.386,-3.3867,-3.3728,-3.3858,-3.3857,-3.3857,-3.3856,-3.3856,0,-3.3749,-3.3751,-3.3777,-3.3797,-3.3819,-3.379,-3.3803,-3.3823,-3.3855,-3.3864,-3.3885,-3.392,-3.3946,-3.3941,-3.3965,-3.3988,-3.3976,-3.3995,-3.3994,-3.3995,-3.3886,-3.3873,-3.4005,-3.4005,-3.4005,-3.4005,-3.4005,-3.4005,-3.3823,-3.3874,-3.3866,-3.392,-3.3921,-3.3957,-3.3966,-3.3978,-3.3985,-3.4026,-3.4047,-3.4043,-3.4046,-3.407,-3.4093,-3.409,-3.4101,-3.4126,-3.4119,-3.4017,-3.4003,-3.3989,-3.3976,-3.4128,-3.4128,-3.4225,-3.4226,-3.4227]},{"header":{"parameterUnit":"m.s-1","parameterCategory":1,"la1":30.2991,"la2":30.254,"lo1":-89.0895,"lo2":-89.0444,"dy":0.0017,"dx":0.0017,"nx":28,"ny":28,"refTime":"2024-02-27T03:00:00:Z","depth":0,"parameterNumber":3,"parameterNumberName":"V-component_of_WINDS"},"data":[0,0,0,0,0,0,0,0,0,0,0,0,0,0,0,0,0,0,0,0,0,0,0,0,0,0,0,0,0,0,0,0,0,0,0,0,0,0,0,0,0,0,0,0,0,0,0,0,0,0,0,0,0,0,0,0,0,0,-9.9949,-9.995,0,-10.0071,-10.0072,-10.0073,-9.9971,-9.9967,-9.9963,-9.9959,-10.0075,-10.0082,-10.0089,0,0,0,0,0,0,0,0,0,0,0,0,0,-9.9622,-9.9628,-9.9949,-9.9951,-9.9952,-10.007,-10.0072,-10.0074,-9.9972,-9.9967,-9.9962,-9.9957,-10.0073,-10.0081,-10.009,0,0,0,0,0,0,0,0,0,0,0,0,0,-9.9756,-9.9631,-9.9949,-9.9916,-9.9914,-10.007,-10.0072,-10.0074,-9.9973,-9.9967,-9.996,-9.9954,-10.007,-10.0081,-10.0091,-10.0284,0,0,-10.0123,-10.0128,0,0,0,0,0,0,0,0,-9.9748,-9.9768,-9.9919,-9.9918,-9.9917,-9.9999,-9.9999,-10.0144,-9.9975,-9.995,-9.9958,-9.9951,-10.0055,-10.0066,-10.0103,-10.0289,-10.0294,-10.0124,-10.0131,-10.0135,-10.0138,0,0,0,0,0,0,0,-9.9739,-9.9762,-9.9997,-9.9921,-9.992,-9.9893,-9.9905,-10.0026,-10.0036,-9.9952,-9.9945,-9.9961,-10.0053,-10.0093,-10.0105,-10.0296,-10.0124,-10.0133,-10.014,-10.0144,-10.0647,-10.0654,0,0,0,0,0,0,-9.9734,-9.9755,-9.9993,-10.0,-9.9815,-9.9904,-9.9917,-9.9979,-10.0035,-10.0037,-9.9966,-9.9956,-10.0078,-10.0092,-10.0108,-10.0339,-10.0135,-10.0145,-10.0151,-10.0641,-10.0649,-10.0657,0,0,0,0,0,0,-9.9727,-9.9756,-9.9988,-9.9876,-9.9903,-9.9916,-9.9987,-9.9985,-10.0025,-10.0046,-10.0046,-10.0006,-10.0073,-10.0093,-10.0242,-10.0341,-10.015,-10.016,-10.0632,-10.0643,-10.0653,-10.0801,0,0,0,0,0,0,-9.9719,-9.9755,-9.9829,-9.9878,-9.991,-10.0122,-9.9993,-9.9992,-10.0044,-10.0032,-10.0083,-10.0085,-10.007,-10.0227,-10.0252,-10.0352,-10.0168,-10.0623,-10.0637,-10.0649,-10.0787,-10.0815,-10.0839,0,0,0,0,0,-9.9707,-9.9864,-9.9834,-9.9863,-10.0004,-10.0128,-10.0145,-10.0127,-10.0053,-10.0127,-10.0141,-10.0084,-10.0326,-10.0243,-10.0271,-10.0376,-10.0617,-10.0633,-10.0648,-10.0775,-10.0809,-10.0838,0,0,0,0,0,0,-9.9823,-9.987,-9.9837,-10.0015,-10.0069,-10.011,-10.0204,-10.0163,-10.0237,-10.0222,-10.0192,-10.0205,-10.0362,-10.0383,-10.0289,-10.0565,-10.0459,-10.0482,-10.0546,-10.0579,-10.0604,-10.0596,-10.0177,0,0,0,0,0,-9.987,-9.9969,-10.0003,-10.0157,-10.0186,-10.0191,-10.0244,-10.0225,-10.0278,-10.03,-10.0324,-10.0376,-10.0464,-10.0522,-10.0604,-10.0789,-10.0799,-10.0875,-10.0901,-10.0922,-10.0942,-10.1042,-10.1077,-10.0708,-10.0708,-10.0708,0,0,-9.9967,-10.0004,-10.0068,-10.0182,-10.0221,-10.0323,-10.021,-10.0322,-10.0396,-10.0316,-10.0458,-10.0478,-10.0534,-10.0702,-10.0777,-10.0725,-10.1046,-10.0942,-10.0959,-10.0967,-10.1062,-10.1097,-10.1128,-10.0719,-10.0717,-10.0715,0,0,-10.0195,-10.0234,-10.0367,-10.041,-10.0472,-10.0475,-10.0507,-10.0556,-10.0567,-10.071,-10.0652,-10.0739,-10.0891,-10.0934,-10.0975,-10.1222,-10.1172,-10.1249,-10.1385,-10.1483,-10.1512,-10.1538,-10.1626,-10.1658,-10.1269,-10.1269,-10.1269,0,-10.0307,-10.046,-10.044,-10.0557,-10.0609,-10.0543,-10.0677,-10.0718,-10.0803,-10.084,-10.078,-10.0971,-10.1003,-10.1181,-10.1242,-10.1277,-10.1312,-10.1243,-10.151,-10.1535,-10.1559,-10.1643,-10.1677,-10.1278,-10.1277,-10.1276,-10.1275,0,-10.0594,-10.0702,-10.0801,-10.0889,-10.0951,-10.1076,-10.1073,-10.1138,-10.1114,-10.1123,-10.1269,-10.1307,-10.1396,-10.1436,-10.1412,-10.1611,-10.1577,-10.1515,-10.1407,-10.1604,-10.1682,-10.1714,-10.1291,-10.1288,-10.1285,-10.1283,0,0,-10.0898,-10.0976,-10.1012,-10.1052,-10.1117,-10.1198,-10.132,-10.141,-10.1467,-10.1527,-10.1628,-10.1759,-10.1702,-10.175,-10.173,-10.1816,-10.2011,-10.1743,-10.1744,-10.1792,-10.2232,-10.228,-10.2317,-10.1978,-10.1984,-10.1989,-10.2228,0,-10.113,-10.1345,-10.1332,-10.1533,-10.1631,-10.1572,-10.1677,-10.1728,-10.1739,-10.1822,-10.1833,-10.1927,-10.1845,-10.1873,-10.1956,-10.197,-10.2099,-10.1952,-10.207,-10.2075,-10.2059,-10.2358,-10.2408,-10.2632,-10.2258,-10.2263,-10.2267,0,-10.1429,-10.1505,-10.1718,-10.177,-10.181,-10.1906,-10.1988,-10.2069,-10.2125,-10.2126,-10.2181,-10.2148,-10.2268,-10.2159,-10.2325,-10.2225,-10.2272,-10.2287,-10.2295,-10.2305,-10.2183,-10.2377,-10.2703,-10.2737,-10.2315,-10.2311,-10.2308,0,-10.1631,-10.1785,-10.1933,-10.1968,-10.2032,-10.2101,-10.2131,-10.218,-10.2236,-10.2306,-10.2342,-10.2425,-10.2471,-10.2535,-10.2524,-10.2445,-10.2693,-10.2582,-10.2697,-10.2698,-10.2752,-10.2749,-10.309,-10.2782,-10.2781,-10.2781,-10.278,0,-10.1892,-10.2025,-10.2025,-10.2116,-10.2262,-10.2244,-10.2388,-10.2409,-10.2454,-10.2546,-10.2498,-10.2585,-10.2566,-10.2652,-10.2644,-10.2783,-10.2803,-10.2807,-10.2803,-10.2812,-10.2812,-10.2842,-10.2827,-10.279,-10.2788,-10.2786,-10.2784,0,-10.2142,-10.2148,-10.2305,-10.2354,-10.2369,-10.2475,-10.2516,-10.26,-10.2608,-10.2726,-10.2752,-10.2764,-10.2863,-10.2859,-10.2969,-10.2964,-10.3135,-10.3113,-10.3118,-10.3113,-10.3229,-10.3218,-10.3602,-10.3652,-10.3311,-10.3314,-10.3317,0,-10.2309,-10.241,-10.2471,-10.2531,-10.2566,-10.2663,-10.2721,-10.2706,-10.2768,-10.284,-10.2916,-10.3011,-10.3087,-10.3248,-10.3264,-10.3349,-10.3329,-10.3458,-10.3341,-10.3347,-10.3331,-10.3326,-10.3336,-10.348,-10.3484,-10.3487,-10.349,0,-10.2604,-10.2602,-10.2689,-10.2778,-10.2849,-10.2917,-10.2979,-10.303,-10.3022,-10.3094,-10.3196,-10.3255,-10.3371,-10.3466,-10.3548,-10.3574,-10.3532,-10.3527,-10.3558,-10.3568,-10.3567,-10.357,-10.3181,-10.3518,-10.3515,-10.3513,-10.3511,-10.351,-10.2817,-10.2905,-10.2963,-10.3061,-10.3108,-10.3168,-10.3251,-10.3271,-10.3357,-10.3452,-10.3437,-10.3552,-10.3605,-10.3711,-10.3746,-10.3834,-10.3788,-10.3833,-10.3844,-10.3856,-10.387,-10.3553,-10.3849,-10.3848,-10.3847,-10.3846,-10.3846,0,-10.3111,-10.3146,-10.3237,-10.3328,-10.3405,-10.3361,-10.3428,-10.3495,-10.3598,-10.3652,-10.3729,-10.3847,-10.3939,-10.3964,-10.4052,-10.4118,-10.4101,-10.4142,-10.4137,-10.4144,-10.3905,-10.387,-10.4155,-10.4155,-10.4155,-10.4155,-10.4155,-10.4154,-10.3273,-10.342,-10.3425,-10.3594,-10.3627,-10.3742,-10.3784,-10.3839,-10.3883,-10.4018,-10.4096,-10.4113,-10.4155,-10.4247,-10.4329,-10.4333,-10.4368,-10.4418,-10.4415,-10.4191,-10.4161,-10.4131,-10.4098,-10.4426,-10.4426,-10.4646,-10.4648,-10.465]}]]